TimeEST,TemperatureF,Dew PointF,Humidity,Sea Level PressureIn,VisibilityMPH,Wind Direction,Wind SpeedMPH,Gust SpeedMPH,PrecipitationIn,Events,Conditions,WindDirDegrees,DateUTC
12:51 AM,12.0,-4.0,49,29.99,10.0,NW,24.2,39.1,N/A,,Partly Cloudy,320,2013-02-18 05:51:00
2:51 AM,10.9,-4.0,51,30.05,10.0,NW,18.4,33.4,N/A,,Partly Cloudy,320,2013-02-18 07:51:00
3:51 AM,10.0,-2.9,56,30.07,10.0,WNW,17.3,28.8,N/A,,Clear,300,2013-02-18 08:51:00
4:51 AM,9.0,-4.0,56,30.09,10.0,NW,19.6,25.3,N/A,,Clear,310,2013-02-18 09:51:00
5:51 AM,8.1,-4.0,58,30.14,10.0,WNW,18.4,28.8,N/A,,Partly Cloudy,290,2013-02-18 10:51:00
6:51 AM,8.1,-4.0,58,30.18,10.0,NW,13.8,20.7,N/A,,Partly Cloudy,310,2013-02-18 11:51:00
7:51 AM,10.4,-4.0,52,30.18,10.0,NW,12.7,-,N/A,,Partly Cloudy,320,2013-02-18 12:51:00
8:51 AM,12.9,-4.0,47,30.22,10.0,NW,19.6,26.5,N/A,,Clear,310,2013-02-18 13:51:00
9:51 AM,16.0,-2.9,43,30.22,10.0,WNW,23.0,31.1,N/A,,Clear,300,2013-02-18 14:51:00
10:51 AM,19.0,-4.0,36,30.23,10.0,WNW,16.1,31.1,N/A,,Clear,300,2013-02-18 15:51:00
11:51 AM,21.0,-2.0,36,30.22,10.0,WNW,16.1,29.9,N/A,,Clear,290,2013-02-18 16:51:00
12:51 PM,21.9,-4.0,32,30.20,10.0,WNW,16.1,28.8,N/A,,Clear,290,2013-02-18 17:51:00
1:51 PM,25.0,-2.0,31,30.19,10.0,West,15.0,23.0,N/A,,Clear,280,2013-02-18 18:51:00
2:51 PM,27.0,-2.0,29,30.19,10.0,West,17.3,24.2,N/A,,Clear,270,2013-02-18 19:51:00
3:51 PM,27.0,-0.0,31,30.18,10.0,WNW,9.2,23.0,N/A,,Partly Cloudy,290,2013-02-18 20:51:00
4:51 PM,26.1,1.9,35,30.19,10.0,WNW,13.8,-,N/A,,Partly Cloudy,290,2013-02-18 21:51:00
5:51 PM,24.1,3.0,40,30.19,10.0,WNW,10.4,-,N/A,,Partly Cloudy,300,2013-02-18 22:51:00
6:51 PM,23.0,3.9,44,30.20,10.0,WNW,6.9,-,N/A,,Partly Cloudy,300,2013-02-18 23:51:00
7:51 PM,21.9,3.9,46,30.19,10.0,NW,3.5,-,N/A,,Partly Cloudy,320,2013-02-19 00:51:00
8:51 PM,19.9,5.0,52,30.19,10.0,Calm,Calm,-,N/A,,Partly Cloudy,0,2013-02-19 01:51:00
9:51 PM,19.9,6.1,55,30.18,10.0,Calm,Calm,-,N/A,,Scattered Clouds,0,2013-02-19 02:51:00
10:51 PM,17.1,8.1,68,30.16,10.0,Calm,Calm,-,N/A,,Scattered Clouds,0,2013-02-19 03:51:00
11:51 PM,19.9,7.0,57,30.16,10.0,Calm,Calm,-,N/A,,Scattered Clouds,0,2013-02-19 04:51:00